カタログに戻る

SATELIOT_4

運用中通信SSO
NORAD 60537·PAYLOAD·🇪🇸 Spain

打ち上げ Aug 16, 2024 から Vandenberg Space Force Base

Loading…

次のパス (今後24時間)

TLE

最新Source: Space-Track

元期: Sep 13, 2026, 05:07 UTC

1 60537U 24149BX  26256.21327843  .00001640  00000-0  14784-3 0  9990
2 60537  97.6667 329.0127 0003588  99.6918 260.4709 14.96918596113140

AllMySatでSATELIOT_4をリアルタイム追跡

Download on the App Store